Location: Chemnitz
(49.5500°N, 11.5830°E)
Time: 09:34:08
(UTC+01:00)

ISS - Visible Passes

Search period start: 22 February 2018 00:00
Search period end: 04 March 2018 00:00
Orbit: 403 x 407 km, 51.6° (Epoch: 22 February)

Date Brightness Start Highest point End Pass type
(mag) Time Alt. Az. Time Alt. Az. Time Alt. Az.
26 Feb -0.9 06:25:07 10° S 06:27:16 16° SE 06:29:26 10° E visible
28 Feb -2.0 06:16:01 10° SSW 06:18:57 30° SSE 06:21:53 10° E visible
01 Mar -1.4 05:24:24 10° S 05:26:51 19° SE 05:29:17 10° E visible
02 Mar -1.0 04:34:15 12° SE 04:34:47 12° SE 04:36:07 10° ESE visible
02 Mar -3.2 06:07:29 10° SW 06:10:42 55° SSE 06:13:55 10° ENE visible
03 Mar -2.6 05:16:56 22° SSW 05:18:28 35° SSE 05:21:31 10° E visible
